[TLELIST] Archives

 

[TLELIST] Current TLEs

September 17th 2024 PDT

HST 1 20580U 90037B 24260.87118105 .00011485 00000-0 51701-3 0 9995 2 20580 28.4679 90.1613 0002735 335.8657 24.1808 15.19479398690988 ISS (ZARYA) 1 25544U 98067A 24261.17659006 .00024718 00000-0 45147-3 0 9995 2 25544 51.6389 219.7186 0007644 2.2501 119.5832 15.49224336472819 CXO 1 25867U 99040B 24263.06360888 .00001045 00000-0 00000+0 0 9995 2 25867 43.1647 146.1776 8794145 301.4188 0.8937 0.37808585 26076 ...Continue Reading

[TLELIST] Current TLEs

September 17th 2024 PDT

HST 1 20580U 90037B 24260.87118105 .00011485 00000-0 51701-3 0 9995 2 20580 28.4679 90.1613 0002735 335.8657 24.1808 15.19479398690988 ISS (ZARYA) 1 25544U 98067A 24261.17659006 .00024718 00000-0 45147-3 0 9995 2 25544 51.6389 219.7186 0007644 2.2501 119.5832 15.49224336472819 CXO 1 25867U 99040B 24263.06360888 .00001045 00000-0 00000+0 0 9995 2 25867 43.1647 146.1776 8794145 301.4188 0.8937 0.37808585 26076 ...Continue Reading

[TLELIST] Current TLEs

September 16th 2024 PDT

HST 1 20580U 90037B 24259.88596335 .00012272 00000-0 55332-3 0 9998 2 20580 28.4678 96.7804 0002622 324.5080 35.5338 15.19459997690832 ISS (ZARYA) 1 25544U 98067A 24260.34710130 .00058006 00000-0 10450-2 0 9994 2 25544 51.6377 223.8252 0007548 359.6488 172.9644 15.49200405472682 CXO 1 25867U 99040B 24260.41841978 .00001178 00000-0 00000+0 0 9992 2 25867 43.0906 146.4135 8793537 301.2858 0.7279 0.37805052 26064 ...Continue Reading

[TLELIST] Current TLEs

September 15th 2024 PDT

HST 1 20580U 90037B 24259.22914428 .00011593 00000-0 52246-3 0 9999 2 20580 28.4677 101.1925 0002563 317.3292 42.7101 15.19445664690996 ISS (ZARYA) 1 25544U 98067A 24259.37728730 .00068309 00000-0 12292-2 0 9993 2 25544 51.6367 228.6268 0007496 355.4785 164.9285 15.49161729472538 CXO 1 25867U 99040B 24260.41841978 .00001178 00000-0 00000+0 0 9992 2 25867 43.0906 146.4135 8793537 301.2858 0.7279 0.37805052 26064 ...Continue Reading

[TLELIST] Current TLEs

September 15th 2024 PDT

HST 1 20580U 90037B 24259.22914428 .00011593 00000-0 52246-3 0 9999 2 20580 28.4677 101.1925 0002563 317.3292 42.7101 15.19445664690996 ISS (ZARYA) 1 25544U 98067A 24259.37728730 .00068309 00000-0 12292-2 0 9993 2 25544 51.6367 228.6268 0007496 355.4785 164.9285 15.49161729472538 CXO 1 25867U 99040B 24260.41841978 .00001178 00000-0 00000+0 0 9992 2 25867 43.0906 146.4135 8793537 301.2858 0.7279 0.37805052 26064 ...Continue Reading

[TLELIST] Current TLEs

September 15th 2024 PDT

HST 1 20580U 90037B 24259.22914428 .00011593 00000-0 52246-3 0 9999 2 20580 28.4677 101.1925 0002563 317.3292 42.7101 15.19445664690996 ISS (ZARYA) 1 25544U 98067A 24259.37728730 .00068309 00000-0 12292-2 0 9993 2 25544 51.6367 228.6268 0007496 355.4785 164.9285 15.49161729472538 CXO 1 25867U 99040B 24260.41841978 .00001178 00000-0 00000+0 0 9992 2 25867 43.0906 146.4135 8793537 301.2858 0.7279 0.37805052 26064 ...Continue Reading

[TLELIST] Current TLEs

September 14th 2024 PDT

HST 1 20580U 90037B 24257.32433388 .00019351 00000-0 87854-3 0 9992 2 20580 28.4670 113.9880 0002357 296.8543 63.1808 15.19399520690700 ISS (ZARYA) 1 25544U 98067A 24258.40447241 .00032361 00000-0 59047-3 0 9990 2 25544 51.6381 233.4386 0007651 352.1543 139.4597 15.49102945472389 CXO 1 25867U 99040B 24260.41841978 .00001178 00000-0 00000+0 0 9992 2 25867 43.0906 146.4135 8793537 301.2858 0.7279 0.37805052 26064 ...Continue Reading

[TLELIST] Current TLEs

September 13th 2024 PDT

HST 1 20580U 90037B 24256.79885686 .00017384 00000-0 78898-3 0 9996 2 20580 28.4669 117.5175 0002397 289.7062 70.3272 15.19379060690360 ISS (ZARYA) 1 25544U 98067A 24257.31072666 .00034102 00000-0 62315-3 0 9991 2 25544 51.6380 238.8472 0007773 348.8188 159.3383 15.49033185472210 CXO 1 25867U 99040B 24260.41841978 .00001178 00000-0 00000+0 0 9992 2 25867 43.0906 146.4135 8793537 301.2858 0.7279 0.37805052 26064 ...Continue Reading

[TLELIST] Current TLEs

September 13th 2024 PDT

HST 1 20580U 90037B 24256.79885686 .00017384 00000-0 78898-3 0 9996 2 20580 28.4669 117.5175 0002397 289.7062 70.3272 15.19379060690360 ISS (ZARYA) 1 25544U 98067A 24257.31072666 .00034102 00000-0 62315-3 0 9991 2 25544 51.6380 238.8472 0007773 348.8188 159.3383 15.49033185472210 CXO 1 25867U 99040B 24260.41841978 .00001178 00000-0 00000+0 0 9992 2 25867 43.0906 146.4135 8793537 301.2858 0.7279 0.37805052 26064 ...Continue Reading

[TLELIST] Current TLEs

September 12th 2024 PDT

HST 1 20580U 90037B 24256.07631519 .00014325 00000-0 64926-3 0 9990 2 20580 28.4670 122.3707 0002409 280.4010 79.6312 15.19355240690510 ISS (ZARYA) 1 25544U 98067A 24256.46084667 .00027694 00000-0 50912-3 0 9998 2 25544 51.6380 243.0542 0007697 345.2843 100.4574 15.48970942472084 CXO 1 25867U 99040B 24257.77475761 .00001188 00000-0 00000-0 0 9992 2 25867 43.0300 146.5909 8796423 301.2084 0.7367 0.37804065 14901 ...Continue Reading
  • This mailing list is a public mailing list - anyone may join or leave, at any time.
  • This mailing list is announce-only.

International Space Station (ISS) / Hubble Space Telescope (HST) / Chandra X-Ray Observatory Orbital Data via EMAIL

Privacy Policy:

Private list